Weather in Krupyshino

Russia / Oryol Oblast     52°34′14″N   35°29′43″E
temp.,
°C
wind,
m/s
gust,
m/s
humid.,
%
clouds,
%
prec.,
mm/h
press.,
hPa
HPBL,
m
30 june, thu
thu3000:00+15e3572100 0.0 1019105
03:00+13e337519 0.0 102041
06:00+14ene23820 0.0 101988
09:00+19ene33640 0.0 1019474
12:00+22ne33511 0.0 10181530
15:00+23nne44474 0.0 10181731
18:00+22ne235327 0.0 10171331
21:00+17nne126635 0.0 101711
1 july, fri
fri100:00+15n228046 0.0 101811
03:00+14nnw34785 0.0 101849
06:00+14n37820 0.0 1018149
09:00+19nne58620 0.0 1019566
12:00+22nne79574 0.0 10191772
15:00+21ne78495 0.0 10191617
18:00+19ne57590 0.0 10201190
21:00+14ene33770 0.0 102141
2 july, sat
sat200:00+12ene11800 0.0 102210
03:00+11nnw22790 0.0 102317
06:00+11nnw35805 0.0 1024116
09:00+18n35625 0.0 1023499
12:00+21nnw34525 0.0 10221427
15:00+23nnw35485 0.0 10211714
18:00+23nw36540 0.0 10201188
21:00+17nne22740 0.0 102011
3 july, sun
sun300:00+15sw11800 0.0 102011
03:00+15wnw33780 0.0 101922
06:00+15nw38855 0.0 1019149
09:00+22nw577170 0.0 1018497
12:00+26nw565526 0.0 10171171
15:00+27nw5648100 0.0 10161878
18:00+19e4691100 5.0 1017107
21:00+18nnw4995100 9.3 1017206
4 july, mon
mon400:00+17nnw3488100 0.9 101763
03:00+16nnw339285 1.1 101741
06:00+17n239071 0.0 101768
09:00+22n22740 0.0 1017398
12:00+25nne22590 0.0 1017973
15:00+27ene225116 0.2 10171850
18:00+27e225811 0.0 1017798
21:00+21ese126521 0.0 101711